Flag for Canada Weather past 2 weeks in Langley, British Columbia, Canada

Now
57 °F

Cool.


Feels Like: 56 °F
Forecast: 53 / 56 °F
Wind: 7 mph from Southeast

Location: P. Meadows Coastal Station

Current Time: Oct 21, 2014 at 11:59:06 PM

Latest Report: Oct 21, 2014 at 11:00 PM


Visibility: N/A

Pressure: 29.68 "Hg

Humidity: 78%

Dew point: 50 °F

Location of LangleyLocation

Historic Weather in Langley — Graph

°F

Langley temperature yesterday

Maximum temperature yesterday: 60 °F (at 4:00 PM)
Minimum temperature yesterday: 54 °F (at 11:00 PM)
Average temperature yesterday: 58 °F

Past Weeks' High & Low Weather Summary

 TemperatureHumidityPressure
High72 °F (Oct 9, 4:00 PM)100% (Oct 8, 3:00 AM)30.24 "Hg (Oct 8, 3:00 AM)
Low47 °F (Oct 17, 12:00 AM)54% (Oct 19, 1:00 PM)29.52 "Hg (Oct 15, 2:00 AM)
Average57 °F89%29.88 "Hg
* Reported Oct 6 11:00 PM — Oct 21 11:00 PM, Langley, Weather by CustomWeather, © 2014

Note: Actual official high and low records may vary slightly from our data, if they occured in-between our weather recording intervals... More about our weather records

Advertising

Langley weather history for previous 24 hours

 ConditionsComfort  
Time TempWeatherWind HumidityBarometerVisibility
11:00 PM
Oct 21
57 °FCool.7 mph78%29.68 "HgN/A
10:00 PM56 °FCool.5 mph86%29.70 "HgN/A
9:00 PM55 °FCool.5 mph88%29.72 "HgN/A
8:00 PM56 °FCool.5 mph88%29.76 "HgN/A
7:00 PM58 °FCool.3 mph77%29.80 "HgN/A
6:00 PM59 °FCool.7 mph71%29.80 "HgN/A
5:00 PM60 °FCool.7 mph69%29.81 "HgN/A
4:00 PM60 °FCool.8 mph68%29.82 "HgN/A
3:00 PM60 °FCool.9 mph67%29.83 "HgN/A
2:00 PM60 °FCool.6 mph71%29.84 "HgN/A
1:00 PM59 °FCool.6 mph75%29.86 "HgN/A
12:00 PM60 °FCool.5 mph76%29.87 "HgN/A
11:00 AM58 °FCool.2 mph83%29.86 "HgN/A
10:00 AM56 °FCool.3 mph86%29.85 "HgN/A
9:00 AM55 °FCool.5 mph90%29.83 "HgN/A
8:00 AM55 °FCool.5 mph91%29.81 "HgN/A
7:00 AM55 °FCool.3 mph90%29.80 "HgN/A
6:00 AM55 °FCool.3 mph91%29.79 "HgN/A
5:00 AM56 °FCool.2 mph89%29.78 "HgN/A
4:00 AM54 °FCool.2 mph95%29.77 "HgN/A
3:00 AM54 °FCool.2 mph95%29.77 "HgN/A
2:00 AM54 °FCool.3 mph95%29.77 "HgN/A
1:00 AM54 °FCool.1 mph95%29.77 "HgN/A
12:00 AM54 °FCool.1 mph92%29.76 "HgN/A
11:00 PM
Oct 20
54 °FCool.3 mph91%29.75 "HgN/A
Weather by CustomWeather, © 2014

See weather overviewHow to use our weather pages